Time,TemperatureF,DewpointF,PressureIn,WindDirection,WindDirectionDegrees,WindSpeedMPH,WindSpeedGustMPH,Humidity,HourlyPrecipIn,Conditions,Clouds,dailyrainin,SoftwareType,DateUTC
2013-06-14 00:01:00,84.0,72.0,-100.00,West,273,2.0,9.0,67,0.00,,,0.00,,2013-06-14 04:01:00,
2013-06-14 00:12:00,84.0,72.0,-100.00,West,273,2.0,9.0,67,0.00,,,0.00,,2013-06-14 04:12:00,
2013-06-14 00:22:00,84.0,72.0,-100.00,West,273,2.0,9.0,67,0.00,,,0.00,,2013-06-14 04:22:00,
2013-06-14 00:43:00,83.0,70.0,-100.00,NNW,339,3.0,8.0,66,0.00,,,0.00,,2013-06-14 04:43:00,
2013-06-14 00:53:00,83.0,70.0,-100.00,NNW,339,3.0,8.0,66,0.00,,,0.00,,2013-06-14 04:53:00,
2013-06-14 01:02:00,83.0,70.0,-100.00,NNW,339,3.0,8.0,66,0.00,,,0.00,,2013-06-14 05:02:00,
2013-06-14 01:11:00,83.0,70.0,-100.00,NNW,339,3.0,8.0,66,0.00,,,0.00,,2013-06-14 05:11:00,
2013-06-14 01:22:00,83.0,70.0,-100.00,NNW,339,3.0,8.0,66,0.00,,,0.00,,2013-06-14 05:22:00,
2013-06-14 01:43:00,81.0,72.0,-100.00,SSW,201,0.0,7.0,75,0.00,,,0.00,,2013-06-14 05:43:00,
2013-06-14 01:52:00,81.0,72.0,-100.00,SSW,201,0.0,7.0,75,0.00,,,0.00,,2013-06-14 05:52:00,
2013-06-14 02:02:00,81.0,72.0,-100.00,SSW,201,0.0,7.0,75,0.00,,,0.00,,2013-06-14 06:02:00,
2013-06-14 02:12:00,81.0,72.0,-100.00,SSW,201,0.0,7.0,75,0.00,,,0.00,,2013-06-14 06:12:00,
2013-06-14 02:22:00,81.0,72.0,-100.00,SSW,201,0.0,7.0,75,0.00,,,0.00,,2013-06-14 06:22:00,
2013-06-14 02:43:00,78.0,72.0,-100.00,WSW,243,1.0,3.0,82,0.00,,,0.00,,2013-06-14 06:43:00,
2013-06-14 02:52:00,78.0,72.0,-100.00,WSW,243,1.0,3.0,82,0.00,,,0.00,,2013-06-14 06:52:00,
2013-06-14 03:02:00,78.0,72.0,-100.00,WSW,243,1.0,3.0,82,0.00,,,0.00,,2013-06-14 07:02:00,
2013-06-14 03:12:00,78.0,72.0,-100.00,WSW,243,1.0,3.0,82,0.00,,,0.00,,2013-06-14 07:12:00,
2013-06-14 03:22:00,78.0,72.0,-100.00,WSW,243,1.0,3.0,82,0.00,,,0.00,,2013-06-14 07:22:00,
2013-06-14 03:23:00,78.0,73.0,-100.00,WSW,249,1.0,6.0,84,0.00,,,0.00,,2013-06-14 07:23:00,
2013-06-14 03:43:00,78.0,73.0,-100.00,WSW,249,1.0,6.0,84,0.00,,,0.00,,2013-06-14 07:43:00,
2013-06-14 03:53:00,78.0,73.0,-100.00,WSW,249,1.0,6.0,84,0.00,,,0.00,,2013-06-14 07:53:00,
2013-06-14 04:02:00,78.0,73.0,-100.00,WSW,249,1.0,6.0,84,0.00,,,0.00,,2013-06-14 08:02:00,
2013-06-14 04:12:00,78.0,73.0,-100.00,WSW,249,1.0,6.0,84,0.00,,,0.00,,2013-06-14 08:12:00,
2013-06-14 04:43:00,79.0,72.0,-100.00,NW,306,5.0,9.0,80,0.00,,,0.00,,2013-06-14 08:43:00,
2013-06-14 04:53:00,79.0,72.0,-100.00,NW,306,5.0,9.0,80,0.00,,,0.00,,2013-06-14 08:53:00,
2013-06-14 05:02:00,79.0,72.0,-100.00,NW,306,5.0,9.0,80,0.00,,,0.00,,2013-06-14 09:02:00,
2013-06-14 05:12:00,79.0,72.0,-100.00,NW,306,5.0,9.0,80,0.00,,,0.00,,2013-06-14 09:12:00,
2013-06-14 05:22:00,79.0,72.0,-100.00,NW,306,5.0,9.0,80,0.00,,,0.00,,2013-06-14 09:22:00,
2013-06-14 05:43:00,77.0,71.0,-100.00,NW,309,6.0,8.0,81,0.00,,,0.00,,2013-06-14 09:43:00,
2013-06-14 05:53:00,77.0,71.0,-100.00,NW,309,6.0,8.0,81,0.00,,,0.00,,2013-06-14 09:53:00,
2013-06-14 06:01:00,77.0,71.0,-100.00,NW,309,6.0,8.0,81,0.00,,,0.00,,2013-06-14 10:01:00,
2013-06-14 06:12:00,77.0,71.0,-100.00,NW,309,6.0,8.0,81,0.00,,,0.00,,2013-06-14 10:12:00,
2013-06-14 06:22:00,77.0,71.0,-100.00,NW,309,6.0,8.0,81,0.00,,,0.00,,2013-06-14 10:22:00,
2013-06-14 06:23:00,76.0,70.0,-100.00,WNW,296,2.0,9.0,83,0.00,,,0.00,,2013-06-14 10:23:00,
2013-06-14 06:44:00,76.0,70.0,-100.00,WNW,296,2.0,9.0,83,0.00,,,0.00,,2013-06-14 10:44:00,
2013-06-14 06:53:00,76.0,70.0,-100.00,WNW,296,2.0,9.0,83,0.00,,,0.00,,2013-06-14 10:53:00,
2013-06-14 07:02:00,76.0,70.0,-100.00,WNW,296,2.0,9.0,83,0.00,,,0.00,,2013-06-14 11:02:00,
2013-06-14 07:11:00,76.0,70.0,-100.00,WNW,296,2.0,9.0,83,0.00,,,0.00,,2013-06-14 11:11:00,
2013-06-14 07:43:00,77.0,70.0,-100.00,ENE,77,2.0,5.0,80,0.00,,,0.00,,2013-06-14 11:43:00,
2013-06-14 07:52:00,77.0,70.0,-100.00,ENE,77,2.0,5.0,80,0.00,,,0.00,,2013-06-14 11:52:00,
2013-06-14 08:02:00,77.0,70.0,-100.00,ENE,77,2.0,5.0,80,0.00,,,0.00,,2013-06-14 12:02:00,
2013-06-14 08:12:00,77.0,70.0,-100.00,ENE,77,2.0,5.0,80,0.00,,,0.00,,2013-06-14 12:12:00,
2013-06-14 08:22:00,77.0,70.0,-100.00,ENE,77,2.0,5.0,80,0.00,,,0.00,,2013-06-14 12:22:00,
2013-06-14 08:43:00,80.0,69.0,-100.00,ENE,64,7.0,12.0,69,0.00,,,0.00,,2013-06-14 12:43:00,
2013-06-14 08:52:00,80.0,69.0,-100.00,ENE,64,7.0,12.0,69,0.00,,,0.00,,2013-06-14 12:52:00,
2013-06-14 09:02:00,80.0,69.0,-100.00,ENE,64,7.0,12.0,69,0.00,,,0.00,,2013-06-14 13:02:00,
2013-06-14 09:11:00,80.0,69.0,-100.00,ENE,64,7.0,12.0,69,0.00,,,0.00,,2013-06-14 13:11:00,
2013-06-14 09:22:00,80.0,69.0,-100.00,ENE,64,7.0,12.0,69,0.00,,,0.00,,2013-06-14 13:22:00,
2013-06-14 09:43:00,81.0,64.0,-100.00,ENE,58,7.0,15.0,57,0.00,,,0.00,,2013-06-14 13:43:00,
2013-06-14 09:53:00,81.0,64.0,-100.00,ENE,58,7.0,15.0,57,0.00,,,0.00,,2013-06-14 13:53:00,
2013-06-14 10:02:00,81.0,64.0,-100.00,ENE,58,7.0,15.0,57,0.00,,,0.00,,2013-06-14 14:02:00,
2013-06-14 10:11:00,81.0,64.0,-100.00,ENE,58,7.0,15.0,57,0.00,,,0.00,,2013-06-14 14:11:00,
2013-06-14 10:22:00,81.0,64.0,-100.00,ENE,58,7.0,15.0,57,0.00,,,0.00,,2013-06-14 14:22:00,
2013-06-14 10:23:00,82.0,63.0,-100.00,ENE,66,7.0,13.0,53,0.00,,,0.00,,2013-06-14 14:23:00,
2013-06-14 10:43:00,82.0,63.0,-100.00,ENE,66,7.0,13.0,53,0.00,,,0.00,,2013-06-14 14:43:00,
2013-06-14 10:52:00,82.0,63.0,-100.00,ENE,66,7.0,13.0,53,0.00,,,0.00,,2013-06-14 14:52:00,
2013-06-14 11:02:00,82.0,63.0,-100.00,ENE,66,7.0,13.0,53,0.00,,,0.00,,2013-06-14 15:02:00,
2013-06-14 11:11:00,82.0,63.0,-100.00,ENE,66,7.0,13.0,53,0.00,,,0.00,,2013-06-14 15:11:00,
2013-06-14 11:44:00,84.0,62.0,-100.00,ENE,58,5.0,12.0,48,0.00,,,0.00,,2013-06-14 15:44:00,
2013-06-14 11:53:00,84.0,62.0,-100.00,ENE,58,5.0,12.0,48,0.00,,,0.00,,2013-06-14 15:53:00,
2013-06-14 12:01:00,84.0,62.0,-100.00,ENE,58,5.0,12.0,48,0.00,,,0.00,,2013-06-14 16:01:00,
2013-06-14 12:11:00,84.0,62.0,-100.00,ENE,58,5.0,12.0,48,0.00,,,0.00,,2013-06-14 16:11:00,
2013-06-14 12:22:00,84.0,62.0,-100.00,ENE,58,5.0,12.0,48,0.00,,,0.00,,2013-06-14 16:22:00,
2013-06-14 12:43:00,85.0,62.0,-100.00,ENE,71,5.0,12.0,46,0.00,,,0.00,,2013-06-14 16:43:00,
2013-06-14 12:53:00,85.0,62.0,-100.00,ENE,71,5.0,12.0,46,0.00,,,0.00,,2013-06-14 16:53:00,
2013-06-14 13:02:00,85.0,62.0,-100.00,ENE,71,5.0,12.0,46,0.00,,,0.00,,2013-06-14 17:02:00,
2013-06-14 13:12:00,85.0,62.0,-100.00,ENE,71,5.0,12.0,46,0.00,,,0.00,,2013-06-14 17:12:00,
2013-06-14 13:22:00,85.0,62.0,-100.00,ENE,71,5.0,12.0,46,0.00,,,0.00,,2013-06-14 17:22:00,
2013-06-14 13:43:00,87.0,60.0,-100.00,ENE,67,6.0,10.0,40,0.00,,,0.00,,2013-06-14 17:43:00,
2013-06-14 13:53:00,87.0,60.0,-100.00,ENE,67,6.0,10.0,40,0.00,,,0.00,,2013-06-14 17:53:00,
2013-06-14 14:02:00,87.0,60.0,-100.00,ENE,67,6.0,10.0,40,0.00,,,0.00,,2013-06-14 18:02:00,
2013-06-14 14:11:00,87.0,60.0,-100.00,ENE,67,6.0,10.0,40,0.00,,,0.00,,2013-06-14 18:11:00,
2013-06-14 14:22:00,87.0,60.0,-100.00,ENE,67,6.0,10.0,40,0.00,,,0.00,,2013-06-14 18:22:00,
2013-06-14 14:43:00,88.0,62.0,-100.00,NE,39,3.0,9.0,42,0.00,,,0.00,,2013-06-14 18:43:00,
2013-06-14 14:52:00,88.0,62.0,-100.00,NE,39,3.0,9.0,42,0.00,,,0.00,,2013-06-14 18:52:00,
2013-06-14 15:01:00,88.0,62.0,-100.00,NE,39,3.0,9.0,42,0.00,,,0.00,,2013-06-14 19:01:00,
2013-06-14 15:11:00,88.0,62.0,-100.00,NE,39,3.0,9.0,42,0.00,,,0.00,,2013-06-14 19:11:00,
2013-06-14 15:22:00,88.0,62.0,-100.00,NE,39,3.0,9.0,42,0.00,,,0.00,,2013-06-14 19:22:00,
2013-06-14 15:43:00,89.0,61.0,-100.00,ENE,68,4.0,9.0,40,0.00,,,0.00,,2013-06-14 19:43:00,
2013-06-14 15:53:00,89.0,61.0,-100.00,ENE,68,4.0,9.0,40,0.00,,,0.00,,2013-06-14 19:53:00,
2013-06-14 16:02:00,89.0,61.0,-100.00,ENE,68,4.0,9.0,40,0.00,,,0.00,,2013-06-14 20:02:00,
2013-06-14 16:11:00,89.0,61.0,-100.00,ENE,68,4.0,9.0,40,0.00,,,0.00,,2013-06-14 20:11:00,
2013-06-14 16:22:00,89.0,61.0,-100.00,ENE,68,4.0,9.0,40,0.00,,,0.00,,2013-06-14 20:22:00,
2013-06-14 16:43:00,87.0,60.0,-100.00,NE,52,4.0,11.0,41,0.00,,,0.00,,2013-06-14 20:43:00,
2013-06-14 16:53:00,87.0,60.0,-100.00,NE,52,4.0,11.0,41,0.00,,,0.00,,2013-06-14 20:53:00,
2013-06-14 17:02:00,87.0,60.0,-100.00,NE,52,4.0,11.0,41,0.00,,,0.00,,2013-06-14 21:02:00,
2013-06-14 17:12:00,87.0,60.0,-100.00,NE,52,4.0,11.0,41,0.00,,,0.00,,2013-06-14 21:12:00,
2013-06-14 17:22:00,87.0,60.0,-100.00,NE,52,4.0,11.0,41,0.00,,,0.00,,2013-06-14 21:22:00,
2013-06-14 17:43:00,87.0,60.0,-100.00,ENE,69,7.0,11.0,41,0.00,,,0.00,,2013-06-14 21:43:00,
2013-06-14 17:52:00,87.0,60.0,-100.00,ENE,69,7.0,11.0,41,0.00,,,0.00,,2013-06-14 21:52:00,
2013-06-14 18:02:00,87.0,60.0,-100.00,ENE,69,7.0,11.0,41,0.00,,,0.00,,2013-06-14 22:02:00,
2013-06-14 18:12:00,87.0,60.0,-100.00,ENE,69,7.0,11.0,41,0.00,,,0.00,,2013-06-14 22:12:00,
2013-06-14 18:22:00,87.0,60.0,-100.00,ENE,69,7.0,11.0,41,0.00,,,0.00,,2013-06-14 22:22:00,
2013-06-14 18:43:00,86.0,62.0,-100.00,East,81,7.0,11.0,45,0.00,,,0.00,,2013-06-14 22:43:00,
2013-06-14 18:53:00,86.0,62.0,-100.00,East,81,7.0,11.0,45,0.00,,,0.00,,2013-06-14 22:53:00,
2013-06-14 19:02:00,86.0,62.0,-100.00,East,81,7.0,11.0,45,0.00,,,0.00,,2013-06-14 23:02:00,
2013-06-14 19:12:00,86.0,62.0,-100.00,East,81,7.0,11.0,45,0.00,,,0.00,,2013-06-14 23:12:00,
2013-06-14 19:22:00,86.0,62.0,-100.00,East,81,7.0,11.0,45,0.00,,,0.00,,2013-06-14 23:22:00,
2013-06-14 19:23:00,84.0,61.0,-100.00,ENE,65,6.0,10.0,46,0.00,,,0.00,,2013-06-14 23:23:00,
2013-06-14 19:43:00,84.0,61.0,-100.00,ENE,65,6.0,10.0,46,0.00,,,0.00,,2013-06-14 23:43:00,
2013-06-14 19:52:00,84.0,61.0,-100.00,ENE,65,6.0,10.0,46,0.00,,,0.00,,2013-06-14 23:52:00,
2013-06-14 20:01:00,84.0,61.0,-100.00,ENE,65,6.0,10.0,46,0.00,,,0.00,,2013-06-15 00:01:00,
2013-06-14 20:11:00,84.0,61.0,-100.00,ENE,65,6.0,10.0,46,0.00,,,0.00,,2013-06-15 00:11:00,
2013-06-14 20:43:00,80.0,64.0,-100.00,East,90,2.0,8.0,59,0.00,,,0.00,,2013-06-15 00:43:00,
2013-06-14 20:53:00,80.0,64.0,-100.00,East,90,2.0,8.0,59,0.00,,,0.00,,2013-06-15 00:53:00,
2013-06-14 21:01:00,80.0,64.0,-100.00,East,90,2.0,8.0,59,0.00,,,0.00,,2013-06-15 01:01:00,
2013-06-14 21:11:00,80.0,64.0,-100.00,East,90,2.0,8.0,59,0.00,,,0.00,,2013-06-15 01:11:00,
2013-06-14 21:22:00,80.0,64.0,-100.00,East,90,2.0,8.0,59,0.00,,,0.00,,2013-06-15 01:22:00,
2013-06-14 21:23:00,73.0,65.0,-100.00,SW,215,0.0,2.0,76,0.00,,,0.00,,2013-06-15 01:23:00,
2013-06-14 21:43:00,73.0,65.0,-100.00,SW,215,0.0,2.0,76,0.00,,,0.00,,2013-06-15 01:43:00,
2013-06-14 21:54:00,73.0,65.0,-100.00,SW,215,0.0,2.0,76,0.00,,,0.00,,2013-06-15 01:54:00,
2013-06-14 22:02:00,73.0,65.0,-100.00,SW,215,0.0,2.0,76,0.00,,,0.00,,2013-06-15 02:02:00,
2013-06-14 22:11:00,73.0,65.0,-100.00,SW,215,0.0,2.0,76,0.00,,,0.00,,2013-06-15 02:11:00,
2013-06-14 22:23:00,71.0,66.0,-100.00,SSW,207,0.0,2.0,83,0.00,,,0.00,,2013-06-15 02:23:00,
2013-06-14 22:43:00,71.0,66.0,-100.00,SSW,207,0.0,2.0,83,0.00,,,0.00,,2013-06-15 02:43:00,
2013-06-14 22:53:00,71.0,66.0,-100.00,SSW,207,0.0,2.0,83,0.00,,,0.00,,2013-06-15 02:53:00,
2013-06-14 23:01:00,71.0,66.0,-100.00,SSW,207,0.0,2.0,83,0.00,,,0.00,,2013-06-15 03:01:00,
2013-06-14 23:11:00,71.0,66.0,-100.00,SSW,207,0.0,2.0,83,0.00,,,0.00,,2013-06-15 03:11:00,
2013-06-14 23:44:00,70.0,65.0,-100.00,SW,229,0.0,3.0,83,0.00,,,0.00,,2013-06-15 03:44:00,
2013-06-14 23:53:00,70.0,65.0,-100.00,SW,229,0.0,3.0,83,0.00,,,0.00,,2013-06-15 03:53:00,